星链-30818 (STARLINK-30818 )

导读

STARLINK-30818是美国SpaceX星链计划中的卫星,于2023年11月3日发射,归属于美国。星链计划旨在构建全球卫星互联网星座,该卫星加入低轨卫星网络后,可服务全球偏远地区网络覆盖,为提供高速低延迟的互联网接入服务,扩展星链星座的服务覆盖范围与容量,支撑全球卫星互联网络的运行。

Basic Information
目录编号:
58217
目录名称:
STARLINK-30818
国际标识:
2023-170M
轨道中心:
EARTH
卫星名称:
星链-30818
卫星全名:
星链-30818 (STARLINK-30818 )
卫星状态:
在轨 (已飞行1043 天)
发射日期:
2023-11-03 UTC
国别 :
美国 (US)
星等 :
--
This satellite is enrolled in the Space Conjunction Data Service (SCDS) and the current flight risk assessment level is: High Risk
Orbit Information
数据来源 国际轨道数据 AOE轨道数据
星历时间 2026-09-11T14:32:29+0800
12小时前
查看轨道信息
2026-09-10T23:00:00+0800
1天前
查看轨道信息
半长轴 6861.2km 6861.2km
偏心率 0.00014 0.0001625
轨道倾角 43.002° 42.999°
近地点辐角 268.648° 261.727°
升交点赤经 226.008° 229.668°
平近点角 91.421° 133.060°
近地点 482.102km 481.948km
远地点 484.024km 484.178km
周期 94.267分钟 94.267分钟
每日圈数 15.275754 15.275755
Detailed Information
固有亮度:
5
最大亮度:
0.3
卫星平台:
Starlink v2.0 mini
覆盖范围:
全球
运营商:
太空探索技术公司
运营商所在国:
美国
制造商(研发单位):
太空探索技术公司
制造商所在国:
美国
使用方式:
暂无
Satellite Introduction
星链(Starlink)计划是由太空探索技术公司(SpaceX)提出的一个巨型低轨卫星互联网星座项目,计划在2019年至2024年间在太空搭建由约1.2万颗卫星组成的“星链”网络,其中1584颗将部署在地球上空550千米处的近地轨道,并从2020年开始工作。该卫星仍在工作。
2D Orbit Map
3D Orbit Map
Orbit Altitude Analysis Chart
Orbit Inclination Analysis Chart
Orbit Comprehensive Analysis Chart
View Comprehensive Chart
Conjunction Data List
Event ID Objects TCA Miss Dist (km) Collision Risk Probability Collision Risk Index (CRI) Action
CDM_260912-140205-821706-660721
2026-09-12T
14:02:53+0000
0.384 km
远距离
2.794741E-4 高风险 0.84
CDM_260914-030705-821706-275421
2026-09-14T
03:07:53+0000
0.454 km
远距离
1.130246E-4 高风险 0.76
CDM_260912-014705-821706-729022
2026-09-12T
01:47:57+0000
1.203 km
极远距离
1.251953E-5 中风险 0.57
CDM_260913-231205-821706-275421
2026-09-13T
23:12:30+0000
1.188 km
极远距离
5.604514E-6 低风险 0.5
CDM_260913-083805-821705-993921
2026-09-13T
08:38:14+0000
1.721 km
极远距离
3.298426E-6 低风险 0.45
CDM_260913-213805-821706-275421
2026-09-13T
21:38:21+0000
1.459 km
极远距离
2.862113E-6 低风险 0.44
CDM_260913-014905-821706-660721
2026-09-13T
01:49:01+0000
1.873 km
极远距离
2.601633E-6 低风险 0.43
CDM_260913-001405-821706-660721
2026-09-13T
00:14:52+0000
1.908 km
极远距离
2.47633E-6 低风险 0.43
CDM_260912-122805-821706-660721
2026-09-12T
12:28:43+0000
2.463 km
极远距离
1.405622E-6 低风险 0.38
CDM_260914-044205-821706-275421
2026-09-14T
04:42:03+0000
2.730 km
极远距离
6.866294E-7 极低风险 0.32
Miss Distance Evolution Trend with All Objects
Collision Probability Evolution Trend with All Objects